Location: Brachbach
(49.1847°N, 9.7240°E)
Time: 20:51:01
(UTC+00:00)

Cosmos 2219 Rocket - Pass Details

Date: 16 August 2024
Orbit: 826 x 846 km, 71.0° (Epoch: 09 September)

Event Time Altitude Azimuth Distance (km) Brightness Sun altitude
Exits shadow 22:15:38 19° 83° (E) 1,906 3.9 -25.6°
Drops below altitude 10° 22:18:29 10° 54° (NE) 2,478 4.8 -25.8°
Sets 22:21:31 0° 39° (NE) 3,419 5.8 -25.9°
